Tracking 27107 objects as of 22-Mar-2023
HD Live streaming from Space Station
objects crossing your sky now

SCOUT G-1 DEB

Track SCOUT G-1 DEB now!
10-day predictions


NORAD ID: 14222
Int'l Code: 1983-063C
Perigee: 672.2 km
Apogee: 701.3 km
Inclination: 82.4 °
Period: 98.3 minutes
Semi major axis: 7057 km
RCS: 0.0039 m2 (small)
Launch date: June 27, 1983
Source: United States (US)
Launch site: AIR FORCE WESTERN TEST RANGE (AFWTR)

Note: This is SATELLITE DEBRIS
Your satellite tracking list
Your tracking list is empty




NASA's NSSDC Master Catalog

Two Line Element Set (TLE):
1 14222U 83063C   23080.02163010  .00004052  00000-0  76405-3 0  9993
2 14222  82.3753  27.7629 0020610  73.4901 286.8566 14.64197389103453
Source of the keplerian elements: AFSPC